Fergus Falls, MN

1:55 PM CDT on June 22, 2017 (GMT -0500)
Fergus Falls Municipal-Mickelson

Weather History for KFFM - February, 2012

Change the Weather History Date:

Friday, February 10, 2012

  Actual Average Record
Temperature  
Mean Temperature -3 °F -  
Max Temperature 3 °F 20 °F 44 °F (2017)
Min Temperature -9 °F 1 °F -25 °F (1949)
Degree Days  
Heating Degree Days 68    
Moisture  
Dew Point -11 °F    
Average Humidity 69    
Maximum Humidity 84    
Minimum Humidity 51    
Precipitation  
Precipitation 0.00 in - - ()
Sea Level Pressure  
Sea Level Pressure 30.49 in    
Wind  
Wind Speed 15 mph (North)    
Max Wind Speed 23 mph    
Max Gust Speed 30 mph    
Visibility 10 miles    
Events      
Averages and records for this station are not official NWS values.
T = Trace of Precipitation, MM = Missing Value Source: NWS Daily Summary

Daily Weather History Graph

Daily Weather History Graph

Search for Another Location

Airport or City:

Trip Planner

Search our weather history database for the weather conditions in past years. The results will help you decide how hot, cold, wet, or windy it might be!

Date:

Astronomy

Feb. 10, 2012 Rise Set
Actual Time 7:36 AM CST 5:42 PM CST
Civil Twilight 7:04 AM CST 6:13 PM CST
Nautical Twilight 6:29 AM CST 6:49 PM CST
Astronomical Twilight 5:54 AM CST 7:23 PM CST
Moon 9:38 PM CST (2/10) 8:30 AM CST (2/10)
Length of Visible Light 11h 08m
Length of Day
10h 06m
Waning Gibbous, 90% of the Moon is Illuminated
Feb 10
Waning Gibbous
Feb 14
Last Quarter
Feb 21
New
Feb 29
First Quarter
Mar 8
Full

Hourly Weather History & Observations

Time (CST) Temp. Windchill Dew Point Humidity Pressure Visibility Wind Dir Wind Speed Gust Speed Precip Events Conditions
12:13 AM 3.2 °F -16.5 °F -4.0 °F 72% 30.25 in 10.0 mi North 17.3 mph 26.5 mph N/A   Clear
12:33 AM 1.4 °F -19.9 °F -4.0 °F 78% 30.26 in 10.0 mi North 19.6 mph 28.8 mph N/A   Clear
12:53 AM 1.4 °F -21.4 °F -5.8 °F 72% 30.26 in 10.0 mi North 23.0 mph 29.9 mph N/A   Clear
1:13 AM 1.4 °F -19.4 °F -7.6 °F 66% 30.26 in 10.0 mi North 18.4 mph 31.1 mph N/A   Clear
1:33 AM 1.4 °F -19.4 °F -7.6 °F 66% 30.27 in 10.0 mi North 18.4 mph 26.5 mph N/A   Clear
1:54 AM -0.4 °F -21.2 °F -7.6 °F 72% 30.29 in 10.0 mi North 17.3 mph 24.2 mph N/A   Scattered Clouds
2:13 AM -0.4 °F -17.6 °F -9.4 °F 66% 30.30 in 10.0 mi North 11.5 mph 23.0 mph N/A   Scattered Clouds
2:33 AM -2.2 °F -18.9 °F -9.4 °F 71% 30.31 in 10.0 mi North 10.4 mph 27.6 mph N/A   Clear
2:52 AM -2.2 °F -22.9 °F -9.4 °F 71% 30.32 in 10.0 mi North 16.1 mph 24.2 mph N/A   Clear
3:13 AM -2.2 °F -22.9 °F -9.4 °F 71% 30.33 in 10.0 mi North 16.1 mph 23.0 mph N/A   Clear
3:33 AM -4.0 °F -25.8 °F -9.4 °F 78% 30.33 in 10.0 mi North 17.3 mph 23.0 mph N/A   Clear
3:53 AM -5.8 °F -25.2 °F -11.2 °F 77% 30.34 in 10.0 mi North 12.7 mph 24.2 mph N/A   Clear
4:13 AM -5.8 °F -27.5 °F -11.2 °F 77% 30.35 in 10.0 mi North 16.1 mph 20.7 mph N/A   Clear
4:33 AM -5.8 °F -26.8 °F -11.2 °F 77% 30.36 in 10.0 mi NNW 15.0 mph 20.7 mph N/A   Clear
4:53 AM -7.6 °F -29.8 °F -11.2 °F 84% 30.37 in 10.0 mi North 16.1 mph 23.0 mph N/A   Clear
5:14 AM -7.6 °F -29.1 °F -11.2 °F 84% 30.39 in 10.0 mi North 15.0 mph 23.0 mph N/A   Clear
5:33 AM -7.6 °F -30.5 °F -13.0 °F 77% 30.39 in 10.0 mi North 17.3 mph 23.0 mph N/A   Clear
5:53 AM -9.4 °F -29.8 °F -14.8 °F 77% 30.40 in 10.0 mi North 12.7 mph 20.7 mph N/A   Clear
6:13 AM -9.4 °F -29.8 °F -14.8 °F 77% 30.41 in 10.0 mi North 12.7 mph 21.9 mph N/A   Clear
6:33 AM -9.4 °F -29.8 °F -14.8 °F 77% 30.42 in 10.0 mi North 12.7 mph 21.9 mph N/A   Clear
6:53 AM -9.4 °F -29.8 °F -14.8 °F 77% 30.43 in 10.0 mi North 12.7 mph 19.6 mph N/A   Clear
7:14 AM -9.4 °F -31.4 °F -14.8 °F 77% 30.45 in 10.0 mi North 15.0 mph 23.0 mph N/A   Clear
7:33 AM -9.4 °F -28.9 °F -16.6 °F 71% 30.46 in 10.0 mi North 11.5 mph 19.6 mph N/A   Clear
7:53 AM -9.4 °F -29.8 °F -16.6 °F 71% 30.47 in 10.0 mi North 12.7 mph 23.0 mph N/A   Clear
8:14 AM -9.4 °F -32.8 °F -14.8 °F 77% 30.48 in 10.0 mi North 17.3 mph 24.2 mph N/A   Scattered Clouds
8:33 AM -9.4 °F -29.8 °F -14.8 °F 77% 30.49 in 10.0 mi North 12.7 mph 20.7 mph N/A   Mostly Cloudy
8:53 AM -7.6 °F -25.7 °F -14.8 °F 71% 30.49 in 10.0 mi North 10.4 mph 21.9 mph N/A   Overcast
9:13 AM -7.6 °F -28.3 °F -13.0 °F 77% 30.50 in 10.0 mi North 13.8 mph 20.7 mph N/A   Scattered Clouds
9:33 AM -5.8 °F -26.8 °F -13.0 °F 71% 30.52 in 10.0 mi North 15.0 mph 20.7 mph N/A   Clear
9:53 AM -5.8 °F -25.2 °F -11.2 °F 77% 30.52 in 10.0 mi North 12.7 mph 18.4 mph N/A   Clear
10:13 AM -5.8 °F -28.2 °F -11.2 °F 77% 30.52 in 10.0 mi North 17.3 mph 25.3 mph N/A   Clear
10:33 AM -4.0 °F -23.7 °F -11.2 °F 71% 30.52 in 10.0 mi North 13.8 mph 20.7 mph N/A   Clear
10:53 AM -2.2 °F -23.5 °F -11.2 °F 66% 30.53 in 10.0 mi North 17.3 mph 21.9 mph N/A   Clear
11:13 AM -2.2 °F -22.2 °F -9.4 °F 71% 30.54 in 10.0 mi North 15.0 mph - N/A   Clear
11:33 AM -2.2 °F -22.9 °F -11.2 °F 66% 30.55 in 10.0 mi North 16.1 mph 21.9 mph N/A   Clear
11:53 AM -2.2 °F -22.2 °F -11.2 °F 66% 30.55 in 10.0 mi North 15.0 mph 25.3 mph N/A   Clear
12:13 PM -0.4 °F -19.2 °F -11.2 °F 60% 30.55 in 10.0 mi North 13.8 mph 21.9 mph N/A   Clear
12:33 PM -0.4 °F -20.5 °F -11.2 °F 60% 30.55 in 10.0 mi North 16.1 mph 24.2 mph N/A   Clear
12:53 PM 1.4 °F -15.3 °F -11.2 °F 56% 30.55 in 10.0 mi North 11.5 mph 19.6 mph N/A   Clear
1:13 PM 1.4 °F -18.8 °F -11.2 °F 56% 30.55 in 10.0 mi North 17.3 mph 23.0 mph N/A   Clear
1:33 PM 1.4 °F -18.2 °F -9.4 °F 61% 30.55 in 10.0 mi North 16.1 mph 24.2 mph N/A   Clear
1:53 PM 1.4 °F -16.1 °F -9.4 °F 61% 30.56 in 10.0 mi North 12.7 mph 24.2 mph N/A   Clear
2:13 PM 3.2 °F -13.9 °F -11.2 °F 51% 30.56 in 10.0 mi North 12.7 mph 24.2 mph N/A   Clear
2:33 PM 3.2 °F -14.6 °F -11.2 °F 51% 30.56 in 10.0 mi North 13.8 mph 19.6 mph N/A   Clear
2:53 PM 3.2 °F -17.6 °F -9.4 °F 56% 30.56 in 10.0 mi North 19.6 mph 24.2 mph N/A   Clear
3:13 PM 3.2 °F -15.9 °F -11.2 °F 51% 30.57 in 10.0 mi North 16.1 mph 27.6 mph N/A   Clear
3:33 PM 3.2 °F -15.3 °F -9.4 °F 56% 30.58 in 10.0 mi North 15.0 mph 27.6 mph N/A   Clear
3:53 PM 3.2 °F -17.1 °F -9.4 °F 56% 30.58 in 10.0 mi North 18.4 mph 26.5 mph N/A   Clear
4:13 PM 3.2 °F -15.3 °F -9.4 °F 56% 30.59 in 10.0 mi North 15.0 mph 27.6 mph N/A   Clear
4:33 PM 1.4 °F -18.2 °F -9.4 °F 61% 30.59 in 10.0 mi North 16.1 mph 20.7 mph N/A   Clear
4:53 PM 1.4 °F -16.9 °F -9.4 °F 61% 30.60 in 10.0 mi North 13.8 mph 24.2 mph N/A   Clear
5:13 PM -0.4 °F -20.5 °F -9.4 °F 66% 30.61 in 10.0 mi North 16.1 mph 23.0 mph N/A   Clear
5:33 PM -0.4 °F -19.2 °F -9.4 °F 66% 30.61 in 10.0 mi North 13.8 mph 24.2 mph N/A   Clear
5:53 PM -2.2 °F -19.9 °F -9.4 °F 71% 30.62 in 10.0 mi North 11.5 mph 18.4 mph N/A   Clear
6:13 PM -2.2 °F -20.7 °F -11.2 °F 66% 30.63 in 10.0 mi North 12.7 mph 18.4 mph N/A   Clear
6:33 PM -2.2 °F -18.9 °F -11.2 °F 66% 30.64 in 10.0 mi North 10.4 mph 17.3 mph N/A   Clear
6:53 PM -2.2 °F -18.9 °F -11.2 °F 66% 30.64 in 10.0 mi North 10.4 mph 19.6 mph N/A   Clear
7:13 PM -2.2 °F -16.8 °F -11.2 °F 66% 30.64 in 10.0 mi North 8.1 mph - N/A   Clear
7:33 PM -2.2 °F -18.0 °F -9.4 °F 71% 30.64 in 10.0 mi North 9.2 mph 18.4 mph N/A   Clear
7:53 PM -2.2 °F -18.0 °F -9.4 °F 71% 30.64 in 10.0 mi North 9.2 mph 16.1 mph N/A   Clear
8:13 PM -2.2 °F -20.7 °F -9.4 °F 71% 30.65 in 10.0 mi North 12.7 mph 17.3 mph N/A   Clear
8:33 PM -2.2 °F -15.6 °F -11.2 °F 66% 30.66 in 10.0 mi North 6.9 mph - N/A   Clear
8:53 PM -2.2 °F -16.8 °F -9.4 °F 71% 30.66 in 10.0 mi North 8.1 mph - N/A   Clear
9:13 PM -2.2 °F -15.6 °F -9.4 °F 71% 30.66 in 10.0 mi North 6.9 mph - N/A   Clear
9:33 PM -2.2 °F -14.2 °F -9.4 °F 71% 30.67 in 10.0 mi North 5.8 mph - N/A   Clear
9:53 PM -2.2 °F -18.9 °F -9.4 °F 71% 30.68 in 10.0 mi NNW 10.4 mph - N/A   Clear
10:13 PM -4.0 °F - -9.4 °F 78% 30.69 in 10.0 mi Calm Calm - N/A   Clear
10:33 PM -5.8 °F - -11.2 °F 77% 30.69 in 10.0 mi Calm Calm - N/A   Clear
10:53 PM -7.6 °F - -11.2 °F 84% 30.70 in 10.0 mi Calm Calm - N/A   Clear
11:13 PM -7.6 °F - -13.0 °F 77% 30.70 in 10.0 mi Calm Calm - N/A   Clear
11:32 PM -7.6 °F - -11.2 °F 84% 30.69 in 10.0 mi Calm Calm - N/A   Clear
11:53 PM -5.8 °F -21.2 °F -11.2 °F 77% 30.69 in 10.0 mi NNW 8.1 mph - N/A   Clear